Private Wetterstation Sandau
Wetterdaten: Dienstag, 14.08.2012
Datum Zeit Temp. A. Feuchte A. Luftdruck Regen Wind Richtung Richtung Taupunkt Windchill
14.08.2012 00:01 14,8 C 74 % 1019,2 hPa 0,0 l/m 0,0 km/h (0 Bft) O-SO 112 10,2 C 14,8 C
14.08.2012 00:06 14,7 C 75 % 1019,1 hPa 0,0 l/m 0,0 km/h (0 Bft) O 90 10,3 C 14,7 C
14.08.2012 00:11 14,6 C 75 % 1019,1 hPa 0,0 l/m 4,0 km/h (1 Bft) SO 135 10,2 C 14,6 C
14.08.2012 00:16 14,5 C 75 % 1019,2 hPa 0,0 l/m 2,9 km/h (1 Bft) O-SO 112 10,1 C 14,5 C
14.08.2012 00:21 14,4 C 76 % 1018,9 hPa 0,0 l/m 3,6 km/h (1 Bft) O-NO 67 10,2 C 14,4 C
14.08.2012 00:26 14,4 C 76 % 1019,0 hPa 0,0 l/m 3,6 km/h (1 Bft) O 90 10,2 C 14,4 C
14.08.2012 00:31 14,4 C 77 % 1019,1 hPa 0,0 l/m 4,3 km/h (1 Bft) SO 135 10,4 C 14,4 C
14.08.2012 00:36 14,3 C 77 % 1019,1 hPa 0,0 l/m 7,6 km/h (2 Bft) O 90 10,3 C 14,3 C
14.08.2012 00:41 14,2 C 78 % 1019,1 hPa 0,0 l/m 3,2 km/h (1 Bft) O-SO 112 10,4 C 14,2 C
14.08.2012 00:46 14,2 C 78 % 1019,1 hPa 0,0 l/m 2,9 km/h (1 Bft) O-SO 112 10,4 C 14,2 C
14.08.2012 00:51 14,1 C 79 % 1019,1 hPa 0,0 l/m 2,2 km/h (1 Bft) O 90 10,5 C 14,1 C
14.08.2012 00:56 14,1 C 79 % 1019,0 hPa 0,0 l/m 1,8 km/h (1 Bft) O 90 10,5 C 14,1 C
14.08.2012 01:01 14,0 C 79 % 1019,1 hPa 0,0 l/m 4,3 km/h (1 Bft) O-NO 67 10,4 C 14,0 C
14.08.2012 01:06 13,9 C 80 % 1019,0 hPa 0,0 l/m 3,2 km/h (1 Bft) O 90 10,5 C 13,9 C
14.08.2012 01:11 13,9 C 81 % 1019,0 hPa 0,0 l/m 3,6 km/h (1 Bft) O 90 10,7 C 13,9 C
14.08.2012 01:16 13,9 C 81 % 1018,9 hPa 0,0 l/m 3,2 km/h (1 Bft) O 90 10,7 C 13,9 C
14.08.2012 01:21 13,9 C 81 % 1018,9 hPa 0,0 l/m 1,4 km/h (1 Bft) O-NO 67 10,7 C 13,9 C
14.08.2012 01:26 13,8 C 81 % 1019,0 hPa 0,0 l/m 1,4 km/h (1 Bft) O-NO 67 10,6 C 13,8 C
14.08.2012 01:31 13,8 C 81 % 1019,1 hPa 0,0 l/m 7,6 km/h (2 Bft) O-SO 112 10,6 C 13,8 C
14.08.2012 01:36 13,8 C 82 % 1019,1 hPa 0,0 l/m 4,0 km/h (1 Bft) O-SO 112 10,8 C 13,8 C
14.08.2012 01:41 13,8 C 82 % 1019,0 hPa 0,0 l/m 3,6 km/h (1 Bft) O-NO 67 10,8 C 13,8 C
14.08.2012 01:46 13,6 C 82 % 1019,1 hPa 0,0 l/m 3,6 km/h (1 Bft) O-NO 67 10,6 C 13,6 C
14.08.2012 01:51 13,6 C 82 % 1019,0 hPa 0,0 l/m 5,4 km/h (1 Bft) O-NO 67 10,6 C 13,6 C
14.08.2012 01:56 13,6 C 82 % 1019,0 hPa 0,0 l/m 0,0 km/h (0 Bft) O 90 10,6 C 13,6 C
14.08.2012 02:01 13,5 C 83 % 1019,0 hPa 0,0 l/m 5,0 km/h (1 Bft) SO 135 10,7 C 13,5 C
14.08.2012 02:06 13,4 C 83 % 1018,9 hPa 0,0 l/m 5,8 km/h (2 Bft) O-NO 67 10,6 C 13,4 C
14.08.2012 02:11 13,4 C 83 % 1019,0 hPa 0,0 l/m 2,9 km/h (1 Bft) O 90 10,6 C 13,4 C
14.08.2012 02:16 13,3 C 83 % 1019,0 hPa 0,0 l/m 4,7 km/h (1 Bft) SO 135 10,5 C 13,3 C
14.08.2012 02:21 13,3 C 83 % 1018,9 hPa 0,0 l/m 2,2 km/h (1 Bft) SO 135 10,5 C 13,3 C
14.08.2012 02:26 13,2 C 83 % 1019,0 hPa 0,0 l/m 4,3 km/h (1 Bft) O-SO 112 10,4 C 13,2 C
14.08.2012 02:31 13,1 C 83 % 1018,8 hPa 0,0 l/m 4,3 km/h (1 Bft) O-SO 112 10,3 C 13,1 C
14.08.2012 02:36 13,1 C 84 % 1018,8 hPa 0,0 l/m 3,6 km/h (1 Bft) O-NO 67 10,5 C 13,1 C
14.08.2012 02:41 12,9 C 84 % 1018,8 hPa 0,0 l/m 3,2 km/h (1 Bft) O 90 10,3 C 12,9 C
14.08.2012 02:46 12,9 C 84 % 1018,7 hPa 0,0 l/m 2,2 km/h (1 Bft) O 90 10,3 C 12,9 C
14.08.2012 02:51 12,9 C 85 % 1018,7 hPa 0,0 l/m 3,6 km/h (1 Bft) O 90 10,4 C 12,9 C
14.08.2012 02:56 12,8 C 85 % 1018,7 hPa 0,0 l/m 2,2 km/h (1 Bft) O-NO 67 10,3 C 12,8 C
14.08.2012 03:01 12,8 C 85 % 1018,7 hPa 0,0 l/m 5,4 km/h (1 Bft) O-SO 112 10,3 C 12,8 C
14.08.2012 03:06 12,8 C 85 % 1018,7 hPa 0,0 l/m 4,7 km/h (1 Bft) O 90 10,3 C 12,8 C
14.08.2012 03:11 12,7 C 85 % 1018,6 hPa 0,0 l/m 2,9 km/h (1 Bft) O-NO 67 10,2 C 12,7 C
14.08.2012 03:16 12,7 C 86 % 1018,7 hPa 0,0 l/m 2,2 km/h (1 Bft) O-NO 67 10,4 C 12,7 C
14.08.2012 03:21 12,6 C 86 % 1018,5 hPa 0,0 l/m 4,7 km/h (1 Bft) O-NO 67 10,3 C 12,6 C
14.08.2012 03:26 12,6 C 86 % 1018,6 hPa 0,0 l/m 2,5 km/h (1 Bft) O 90 10,3 C 12,6 C
14.08.2012 03:31 12,5 C 86 % 1018,6 hPa 0,0 l/m 9,7 km/h (2 Bft) O-NO 67 10,2 C 12,5 C
14.08.2012 03:36 12,5 C 87 % 1018,5 hPa 0,0 l/m 5,4 km/h (1 Bft) NO 45 10,4 C 12,5 C
14.08.2012 03:41 12,4 C 87 % 1018,5 hPa 0,0 l/m 6,1 km/h (2 Bft) O-NO 67 10,3 C 12,4 C
14.08.2012 03:46 12,4 C 87 % 1018,5 hPa 0,0 l/m 4,3 km/h (1 Bft) O 90 10,3 C 12,4 C
14.08.2012 03:51 12,4 C 87 % 1018,5 hPa 0,0 l/m 9,7 km/h (2 Bft) O 90 10,3 C 12,4 C
14.08.2012 03:56 12,3 C 87 % 1018,4 hPa 0,0 l/m 2,5 km/h (1 Bft) O 90 10,2 C 12,3 C
14.08.2012 04:01 12,3 C 87 % 1018,5 hPa 0,0 l/m 1,4 km/h (1 Bft) O 90 10,2 C 12,3 C
14.08.2012 04:06 12,2 C 87 % 1018,5 hPa 0,0 l/m 5,0 km/h (1 Bft) O 90 10,1 C 12,2 C
14.08.2012 04:11 12,2 C 87 % 1018,5 hPa 0,0 l/m 4,0 km/h (1 Bft) O-NO 67 10,1 C 12,2 C
14.08.2012 04:16 12,1 C 87 % 1018,5 hPa 0,0 l/m 4,7 km/h (1 Bft) O-NO 67 10,0 C 12,1 C
14.08.2012 04:21 12,1 C 87 % 1018,4 hPa 0,0 l/m 2,5 km/h (1 Bft) O-NO 67 10,0 C 12,1 C
14.08.2012 04:26 12,1 C 88 % 1018,4 hPa 0,0 l/m 4,3 km/h (1 Bft) O-NO 67 10,2 C 12,1 C
14.08.2012 04:31 12,1 C 88 % 1018,5 hPa 0,0 l/m 6,5 km/h (2 Bft) O-NO 67 10,2 C 12,1 C
14.08.2012 04:36 12,0 C 88 % 1018,4 hPa 0,0 l/m 5,8 km/h (2 Bft) O-SO 112 10,1 C 12,0 C
14.08.2012 04:41 11,9 C 88 % 1018,5 hPa 0,0 l/m 3,6 km/h (1 Bft) O 90 10,0 C 11,9 C
14.08.2012 04:46 11,9 C 88 % 1018,5 hPa 0,0 l/m 3,6 km/h (1 Bft) O 90 10,0 C 11,9 C
14.08.2012 04:51 11,9 C 88 % 1018,5 hPa 0,0 l/m 5,8 km/h (2 Bft) O 90 10,0 C 11,9 C
14.08.2012 04:56 11,9 C 88 % 1018,5 hPa 0,0 l/m 3,2 km/h (1 Bft) O-SO 112 10,0 C 11,9 C
14.08.2012 05:01 11,9 C 88 % 1018,5 hPa 0,0 l/m 3,6 km/h (1 Bft) O 90 10,0 C 11,9 C
14.08.2012 05:06 11,8 C 88 % 1018,5 hPa 0,0 l/m 6,5 km/h (2 Bft) O-NO 67 9,9 C 11,8 C
14.08.2012 05:11 11,8 C 88 % 1018,4 hPa 0,0 l/m 5,0 km/h (1 Bft) O 90 9,9 C 11,8 C
14.08.2012 05:16 11,8 C 89 % 1018,3 hPa 0,0 l/m 5,0 km/h (1 Bft) O-NO 67 10,0 C 11,8 C
14.08.2012 05:21 11,7 C 89 % 1018,4 hPa 0,0 l/m 4,7 km/h (1 Bft) O-NO 67 9,9 C 11,7 C
14.08.2012 05:26 11,7 C 89 % 1018,4 hPa 0,0 l/m 6,5 km/h (2 Bft) O-SO 112 9,9 C 11,7 C
14.08.2012 05:31 11,6 C 89 % 1018,6 hPa 0,0 l/m 4,3 km/h (1 Bft) O-SO 112 9,8 C 11,6 C
14.08.2012 05:36 11,6 C 89 % 1018,5 hPa 0,0 l/m 3,6 km/h (1 Bft) O-NO 67 9,8 C 11,6 C
14.08.2012 05:41 11,6 C 89 % 1018,4 hPa 0,0 l/m 5,8 km/h (2 Bft) O-NO 67 9,8 C 11,6 C
14.08.2012 05:46 11,6 C 89 % 1018,4 hPa 0,0 l/m 7,6 km/h (2 Bft) O 90 9,8 C 11,6 C
14.08.2012 05:51 11,6 C 89 % 1018,4 hPa 0,0 l/m 5,4 km/h (1 Bft) O-SO 112 9,8 C 11,6 C
14.08.2012 05:56 11,6 C 89 % 1018,4 hPa 0,0 l/m 6,5 km/h (2 Bft) O-NO 67 9,8 C 11,6 C
14.08.2012 06:01 11,6 C 89 % 1018,2 hPa 0,0 l/m 5,8 km/h (2 Bft) O 90 9,8 C 11,6 C
14.08.2012 06:06 11,5 C 89 % 1018,4 hPa 0,0 l/m 4,7 km/h (1 Bft) O-NO 67 9,8 C 11,5 C
14.08.2012 06:11 11,5 C 90 % 1018,4 hPa 0,0 l/m 2,5 km/h (1 Bft) O-NO 67 9,9 C 11,5 C
14.08.2012 06:16 11,5 C 90 % 1018,5 hPa 0,0 l/m 0,0 km/h (0 Bft) O 90 9,9 C 11,5 C
14.08.2012 06:21 11,5 C 90 % 1018,5 hPa 0,0 l/m 3,6 km/h (1 Bft) O-SO 112 9,9 C 11,5 C
14.08.2012 06:26 11,5 C 90 % 1018,4 hPa 0,0 l/m 4,0 km/h (1 Bft) O-NO 67 9,9 C 11,5 C
14.08.2012 06:31 11,5 C 90 % 1018,4 hPa 0,0 l/m 6,1 km/h (2 Bft) O-NO 67 9,9 C 11,5 C
14.08.2012 06:36 11,4 C 90 % 1018,5 hPa 0,0 l/m 4,0 km/h (1 Bft) O-NO 67 9,8 C 11,4 C
14.08.2012 06:41 11,5 C 90 % 1018,5 hPa 0,0 l/m 9,7 km/h (2 Bft) O 90 9,9 C 11,5 C
14.08.2012 06:46 11,6 C 90 % 1018,5 hPa 0,0 l/m 6,8 km/h (2 Bft) O-SO 112 10,0 C 11,6 C
14.08.2012 06:51 12,2 C 90 % 1018,5 hPa 0,0 l/m 4,0 km/h (1 Bft) O-SO 112 10,6 C 12,2 C
14.08.2012 06:56 12,9 C 90 % 1018,5 hPa 0,0 l/m 0,0 km/h (0 Bft) O 90 11,3 C 12,9 C
14.08.2012 07:01 13,4 C 88 % 1018,5 hPa 0,0 l/m 6,1 km/h (2 Bft) O-SO 112 11,5 C 13,4 C
14.08.2012 07:06 13,8 C 85 % 1018,6 hPa 0,0 l/m 6,1 km/h (2 Bft) O-NO 67 11,3 C 13,8 C
14.08.2012 07:11 13,9 C 84 % 1018,6 hPa 0,0 l/m 4,7 km/h (1 Bft) SO 135 11,2 C 13,9 C
14.08.2012 07:16 13,9 C 83 % 1018,6 hPa 0,0 l/m 4,0 km/h (1 Bft) O-NO 67 11,1 C 13,9 C
14.08.2012 07:21 13,8 C 83 % 1018,6 hPa 0,0 l/m 11,9 km/h (2 Bft) O-SO 112 11,0 C 13,8 C
14.08.2012 07:26 13,8 C 83 % 1018,7 hPa 0,0 l/m 5,4 km/h (1 Bft) O 90 11,0 C 13,8 C
14.08.2012 07:31 13,8 C 83 % 1018,6 hPa 0,0 l/m 6,1 km/h (2 Bft) O 90 11,0 C 13,8 C
14.08.2012 07:36 13,8 C 83 % 1018,4 hPa 0,0 l/m 4,7 km/h (1 Bft) O 90 11,0 C 13,8 C
14.08.2012 07:41 13,9 C 83 % 1018,6 hPa 0,0 l/m 6,1 km/h (2 Bft) O-NO 67 11,1 C 13,9 C
14.08.2012 07:46 13,9 C 83 % 1018,4 hPa 0,0 l/m 5,4 km/h (1 Bft) O-SO 112 11,1 C 13,9 C
14.08.2012 07:51 14,1 C 83 % 1018,6 hPa 0,0 l/m 5,8 km/h (2 Bft) SO 135 11,3 C 14,1 C
14.08.2012 07:56 14,3 C 83 % 1018,5 hPa 0,0 l/m 3,6 km/h (1 Bft) O-SO 112 11,5 C 14,3 C
14.08.2012 08:01 14,4 C 83 % 1018,5 hPa 0,0 l/m 7,9 km/h (2 Bft) O-NO 67 11,5 C 14,4 C
14.08.2012 08:06 14,6 C 83 % 1018,5 hPa 0,0 l/m 4,7 km/h (1 Bft) O-NO 67 11,7 C 14,6 C
14.08.2012 08:11 14,7 C 82 % 1018,5 hPa 0,0 l/m 6,8 km/h (2 Bft) SO 135 11,7 C 14,7 C
14.08.2012 08:16 14,8 C 82 % 1018,5 hPa 0,0 l/m 12,2 km/h (2 Bft) O-SO 112 11,8 C 14,8 C
14.08.2012 08:21 14,9 C 82 % 1018,5 hPa 0,0 l/m 5,4 km/h (1 Bft) O-SO 112 11,9 C 14,9 C
14.08.2012 08:26 15,1 C 81 % 1018,5 hPa 0,0 l/m 0,0 km/h (0 Bft) O-SO 112 11,9 C 15,1 C
14.08.2012 08:31 15,3 C 80 % 1018,5 hPa 0,0 l/m 4,0 km/h (1 Bft) SO 135 11,9 C 15,3 C
14.08.2012 08:36 15,6 C 80 % 1018,5 hPa 0,0 l/m 3,6 km/h (1 Bft) O-SO 112 12,2 C 15,6 C
14.08.2012 08:41 15,9 C 79 % 1018,6 hPa 0,0 l/m 5,0 km/h (1 Bft) O-SO 112 12,3 C 15,9 C
14.08.2012 08:46 16,1 C 79 % 1018,6 hPa 0,0 l/m 3,2 km/h (1 Bft) O-SO 112 12,5 C 16,1 C
14.08.2012 08:51 16,3 C 78 % 1018,6 hPa 0,0 l/m 3,2 km/h (1 Bft) O-SO 112 12,5 C 16,3 C
14.08.2012 08:56 16,5 C 78 % 1018,6 hPa 0,0 l/m 2,9 km/h (1 Bft) NO 45 12,6 C 16,5 C
14.08.2012 09:01 16,8 C 77 % 1018,5 hPa 0,0 l/m 5,4 km/h (1 Bft) O-NO 67 12,7 C 16,8 C
14.08.2012 09:06 16,8 C 77 % 1018,6 hPa 0,0 l/m 2,2 km/h (1 Bft) O-NO 67 12,7 C 16,8 C
14.08.2012 09:11 17,0 C 76 % 1018,5 hPa 0,0 l/m 5,8 km/h (2 Bft) O-NO 67 12,7 C 17,0 C
14.08.2012 09:16 17,2 C 75 % 1018,6 hPa 0,0 l/m 4,0 km/h (1 Bft) O-SO 112 12,7 C 17,2 C
14.08.2012 09:21 17,4 C 75 % 1018,5 hPa 0,0 l/m 4,0 km/h (1 Bft) O-SO 112 12,9 C 17,4 C
14.08.2012 09:26 17,6 C 75 % 1018,6 hPa 0,0 l/m 4,0 km/h (1 Bft) SO 135 13,1 C 17,6 C
14.08.2012 09:31 17,9 C 74 % 1018,5 hPa 0,0 l/m 1,4 km/h (1 Bft) O 90 13,2 C 17,9 C
14.08.2012 09:36 18,2 C 73 % 1018,6 hPa 0,0 l/m 1,4 km/h (1 Bft) O-SO 112 13,3 C 18,2 C
14.08.2012 09:41 18,4 C 72 % 1018,6 hPa 0,0 l/m 2,2 km/h (1 Bft) O-SO 112 13,3 C 18,4 C
14.08.2012 09:46 18,6 C 71 % 1018,6 hPa 0,0 l/m 2,9 km/h (1 Bft) O-SO 112 13,2 C 18,6 C
14.08.2012 09:51 18,8 C 71 % 1018,7 hPa 0,0 l/m 1,8 km/h (1 Bft) O 90 13,4 C 18,8 C
14.08.2012 09:56 18,9 C 70 % 1018,7 hPa 0,0 l/m 2,9 km/h (1 Bft) S-SO 157 13,3 C 18,9 C
14.08.2012 10:01 19,1 C 69 % 1018,8 hPa 0,0 l/m 1,8 km/h (1 Bft) O-SO 112 13,3 C 19,1 C
14.08.2012 10:06 19,2 C 69 % 1018,8 hPa 0,0 l/m 5,8 km/h (2 Bft) NO 45 13,4 C 19,2 C
14.08.2012 10:11 19,3 C 69 % 1018,8 hPa 0,0 l/m 7,9 km/h (2 Bft) O-NO 67 13,5 C 19,3 C
14.08.2012 10:16 19,4 C 69 % 1018,8 hPa 0,0 l/m 10,8 km/h (2 Bft) O-SO 112 13,6 C 19,4 C
14.08.2012 10:21 19,6 C 68 % 1018,9 hPa 0,0 l/m 8,3 km/h (2 Bft) O-SO 112 13,5 C 19,6 C
14.08.2012 10:26 19,6 C 68 % 1018,9 hPa 0,0 l/m 7,6 km/h (2 Bft) O-SO 112 13,5 C 19,6 C
14.08.2012 10:31 19,8 C 67 % 1018,8 hPa 0,0 l/m 6,5 km/h (2 Bft) O-NO 67 13,5 C 19,8 C
14.08.2012 10:36 19,9 C 66 % 1018,9 hPa 0,0 l/m 2,5 km/h (1 Bft) SO 135 13,4 C 19,9 C
14.08.2012 10:41 19,9 C 65 % 1018,9 hPa 0,0 l/m 5,4 km/h (1 Bft) O-NO 67 13,1 C 19,9 C
14.08.2012 10:46 20,1 C 65 % 1018,9 hPa 0,0 l/m 2,2 km/h (1 Bft) O-SO 112 13,3 C 20,1 C
14.08.2012 10:51 20,4 C 65 % 1018,6 hPa 0,0 l/m 3,2 km/h (1 Bft) O-SO 112 13,6 C 20,4 C
14.08.2012 10:56 20,5 C 64 % 1018,8 hPa 0,0 l/m 4,3 km/h (1 Bft) SO 135 13,5 C 20,5 C
14.08.2012 11:01 20,8 C 63 % 1018,9 hPa 0,0 l/m 3,2 km/h (1 Bft) O-SO 112 13,5 C 20,8 C
14.08.2012 11:06 20,9 C 62 % 1018,7 hPa 0,0 l/m 6,1 km/h (2 Bft) S-SO 157 13,3 C 20,9 C
14.08.2012 11:11 21,2 C 61 % 1018,8 hPa 0,0 l/m 0,0 km/h (0 Bft) S-SW 202 13,4 C 21,2 C
14.08.2012 11:16 21,4 C 60 % 1018,8 hPa 0,0 l/m 5,0 km/h (1 Bft) SO 135 13,3 C 21,4 C
14.08.2012 11:21 21,6 C 59 % 1018,8 hPa 0,0 l/m 1,8 km/h (1 Bft) S 180 13,2 C 21,6 C
14.08.2012 11:26 21,9 C 59 % 1018,7 hPa 0,0 l/m 2,2 km/h (1 Bft) S 180 13,5 C 21,9 C
14.08.2012 11:31 22,2 C 55 % 1018,6 hPa 0,0 l/m 9,7 km/h (2 Bft) O-NO 67 12,7 C 22,2 C
14.08.2012 11:36 22,1 C 55 % 1018,6 hPa 0,0 l/m 4,7 km/h (1 Bft) O-NO 67 12,6 C 22,1 C
14.08.2012 11:41 22,1 C 54 % 1018,7 hPa 0,0 l/m 0,0 km/h (0 Bft) O-SO 112 12,3 C 22,1 C
14.08.2012 11:46 22,2 C 55 % 1018,7 hPa 0,0 l/m 7,6 km/h (2 Bft) SO 135 12,7 C 22,2 C
14.08.2012 11:51 22,4 C 54 % 1018,6 hPa 0,0 l/m 8,6 km/h (2 Bft) O-SO 112 12,6 C 22,4 C
14.08.2012 11:56 22,8 C 51 % 1018,7 hPa 0,0 l/m 3,6 km/h (1 Bft) O-SO 112 12,1 C 22,8 C
14.08.2012 12:01 22,8 C 51 % 1018,6 hPa 0,0 l/m 1,4 km/h (1 Bft) SO 135 12,1 C 22,8 C
14.08.2012 12:06 22,9 C 49 % 1018,6 hPa 0,0 l/m 2,5 km/h (1 Bft) SO 135 11,6 C 22,9 C
14.08.2012 12:11 22,8 C 50 % 1018,6 hPa 0,0 l/m 0,0 km/h (0 Bft) O 90 11,8 C 22,8 C
14.08.2012 12:16 23,0 C 50 % 1018,6 hPa 0,0 l/m 8,6 km/h (2 Bft) O-NO 67 12,0 C 23,0 C
14.08.2012 12:21 23,0 C 50 % 1018,5 hPa 0,0 l/m 5,0 km/h (1 Bft) S-SW 202 12,0 C 23,0 C
14.08.2012 12:26 23,1 C 49 % 1018,4 hPa 0,0 l/m 5,0 km/h (1 Bft) O-SO 112 11,8 C 23,1 C
14.08.2012 12:31 22,9 C 48 % 1018,4 hPa 0,0 l/m 0,0 km/h (0 Bft) W 270 11,3 C 22,9 C
14.08.2012 12:36 22,9 C 48 % 1018,4 hPa 0,0 l/m 5,0 km/h (1 Bft) O-NO 67 11,3 C 22,9 C
14.08.2012 12:41 23,2 C 47 % 1018,3 hPa 0,0 l/m 6,8 km/h (2 Bft) O 90 11,3 C 23,2 C
14.08.2012 12:46 23,3 C 47 % 1018,3 hPa 0,0 l/m 1,1 km/h (1 Bft) O-SO 112 11,3 C 23,3 C
14.08.2012 12:51 23,6 C 46 % 1018,2 hPa 0,0 l/m 1,8 km/h (1 Bft) SO 135 11,3 C 23,6 C
14.08.2012 12:56 23,8 C 46 % 1018,1 hPa 0,0 l/m 7,9 km/h (2 Bft) O 90 11,5 C 23,8 C
14.08.2012 13:01 23,8 C 46 % 1018,2 hPa 0,0 l/m 0,0 km/h (0 Bft) O-SO 112 11,5 C 23,8 C
14.08.2012 13:06 23,8 C 46 % 1018,1 hPa 0,0 l/m 5,4 km/h (1 Bft) NO 45 11,5 C 23,8 C
14.08.2012 13:11 23,4 C 47 % 1018,1 hPa 0,0 l/m 8,3 km/h (2 Bft) O-NO 67 11,4 C 23,4 C
14.08.2012 13:16 22,9 C 48 % 1018,2 hPa 0,0 l/m 6,1 km/h (2 Bft) O-NO 67 11,3 C 22,9 C
14.08.2012 13:21 22,7 C 48 % 1018,2 hPa 0,0 l/m 5,8 km/h (2 Bft) S-SO 157 11,1 C 22,7 C
14.08.2012 13:26 23,2 C 48 % 1018,0 hPa 0,0 l/m 3,6 km/h (1 Bft) O-SO 112 11,6 C 23,2 C
14.08.2012 13:31 23,5 C 46 % 1018,0 hPa 0,0 l/m 4,7 km/h (1 Bft) NO 45 11,2 C 23,5 C
14.08.2012 13:36 23,1 C 46 % 1018,0 hPa 0,0 l/m 7,2 km/h (2 Bft) SO 135 10,8 C 23,1 C
14.08.2012 13:41 23,2 C 47 % 1017,9 hPa 0,0 l/m 3,2 km/h (1 Bft) O-NO 67 11,3 C 23,2 C
14.08.2012 13:46 23,5 C 46 % 1017,8 hPa 0,0 l/m 9,4 km/h (2 Bft) O-SO 112 11,2 C 23,5 C
14.08.2012 13:51 23,8 C 46 % 1017,8 hPa 0,0 l/m 6,5 km/h (2 Bft) NO 45 11,5 C 23,8 C
14.08.2012 13:56 23,8 C 45 % 1017,9 hPa 0,0 l/m 13,3 km/h (3 Bft) NO 45 11,1 C 23,8 C
14.08.2012 14:01 23,9 C 44 % 1017,8 hPa 0,0 l/m 9,7 km/h (2 Bft) SO 135 10,9 C 23,9 C
14.08.2012 14:06 23,7 C 44 % 1017,8 hPa 0,0 l/m 7,6 km/h (2 Bft) S-SO 157 10,7 C 23,7 C
14.08.2012 14:11 23,8 C 44 % 1017,8 hPa 0,0 l/m 12,6 km/h (3 Bft) O-NO 67 10,8 C 23,8 C
14.08.2012 14:16 23,9 C 43 % 1017,6 hPa 0,0 l/m 3,6 km/h (1 Bft) NO 45 10,5 C 23,9 C
14.08.2012 14:21 24,1 C 44 % 1017,5 hPa 0,0 l/m 6,5 km/h (2 Bft) SO 135 11,1 C 24,1 C
14.08.2012 14:26 24,4 C 44 % 1017,6 hPa 0,0 l/m 9,4 km/h (2 Bft) O-NO 67 11,3 C 24,4 C
14.08.2012 14:31 24,4 C 42 % 1017,7 hPa 0,0 l/m 0,0 km/h (0 Bft) O-NO 67 10,6 C 24,4 C
14.08.2012 14:36 24,5 C 42 % 1017,5 hPa 0,0 l/m 6,1 km/h (2 Bft) O-NO 67 10,7 C 24,5 C
14.08.2012 14:41 23,9 C 42 % 1017,4 hPa 0,0 l/m 10,4 km/h (2 Bft) O-NO 67 10,2 C 23,9 C
14.08.2012 14:46 24,1 C 43 % 1017,3 hPa 0,0 l/m 1,8 km/h (1 Bft) O-SO 112 10,7 C 24,1 C
14.08.2012 14:51 24,6 C 42 % 1017,3 hPa 0,0 l/m 2,5 km/h (1 Bft) O 90 10,8 C 24,6 C
14.08.2012 14:56 24,6 C 42 % 1017,2 hPa 0,0 l/m 5,8 km/h (2 Bft) O-NO 67 10,8 C 24,6 C
14.08.2012 15:01 24,7 C 41 % 1017,2 hPa 0,0 l/m 8,6 km/h (2 Bft) S-SO 157 10,6 C 24,7 C
14.08.2012 15:06 24,7 C 39 % 1017,3 hPa 0,0 l/m 5,8 km/h (2 Bft) O-NO 67 9,8 C 24,7 C
14.08.2012 15:11 24,9 C 38 % 1017,3 hPa 0,0 l/m 3,2 km/h (1 Bft) SO 135 9,6 C 24,9 C
14.08.2012 15:16 24,9 C 38 % 1017,2 hPa 0,0 l/m 2,2 km/h (1 Bft) SO 135 9,6 C 24,9 C
14.08.2012 15:21 25,1 C 38 % 1017,4 hPa 0,0 l/m 4,0 km/h (1 Bft) SO 135 9,8 C 25,1 C
14.08.2012 15:26 25,2 C 38 % 1017,2 hPa 0,0 l/m 6,5 km/h (2 Bft) SO 135 9,9 C 25,2 C
14.08.2012 15:31 25,1 C 38 % 1017,1 hPa 0,0 l/m 6,5 km/h (2 Bft) O-NO 67 9,8 C 25,1 C
14.08.2012 15:36 25,0 C 38 % 1017,1 hPa 0,0 l/m 3,6 km/h (1 Bft) O-NO 67 9,7 C 25,0 C
14.08.2012 15:41 25,2 C 38 % 1017,0 hPa 0,0 l/m 0,0 km/h (0 Bft) N-NO 22 9,9 C 25,2 C
14.08.2012 15:46 25,2 C 39 % 1017,0 hPa 0,0 l/m 6,1 km/h (2 Bft) O-SO 112 10,2 C 25,2 C
14.08.2012 15:51 25,3 C 39 % 1017,0 hPa 0,0 l/m 2,5 km/h (1 Bft) SO 135 10,3 C 25,3 C
14.08.2012 15:56 25,7 C 38 % 1016,9 hPa 0,0 l/m 2,9 km/h (1 Bft) SO 135 10,3 C 25,7 C
14.08.2012 16:01 25,7 C 37 % 1016,8 hPa 0,0 l/m 6,5 km/h (2 Bft) O-SO 112 9,9 C 25,7 C
14.08.2012 16:06 25,5 C 38 % 1016,9 hPa 0,0 l/m 6,1 km/h (2 Bft) O 90 10,1 C 25,5 C
14.08.2012 16:11 25,6 C 37 % 1016,8 hPa 0,0 l/m 3,2 km/h (1 Bft) O-SO 112 9,8 C 25,6 C
14.08.2012 16:16 25,8 C 38 % 1016,8 hPa 0,0 l/m 0,0 km/h (0 Bft) S-SO 157 10,4 C 25,8 C
14.08.2012 16:21 25,9 C 38 % 1016,8 hPa 0,0 l/m 0,0 km/h (0 Bft) O-SO 112 10,5 C 25,9 C
14.08.2012 16:26 25,6 C 38 % 1016,8 hPa 0,0 l/m 9,7 km/h (2 Bft) SO 135 10,2 C 25,6 C
14.08.2012 16:31 25,8 C 38 % 1016,8 hPa 0,0 l/m 5,4 km/h (1 Bft) S-SO 157 10,4 C 25,8 C
14.08.2012 16:36 25,9 C 38 % 1016,8 hPa 0,0 l/m 3,2 km/h (1 Bft) O-SO 112 10,5 C 25,9 C
14.08.2012 16:41 25,9 C 38 % 1016,9 hPa 0,0 l/m 6,1 km/h (2 Bft) O-NO 67 10,5 C 25,9 C
14.08.2012 16:46 25,8 C 37 % 1017,1 hPa 0,0 l/m 8,6 km/h (2 Bft) O-NO 67 10,0 C 25,8 C
14.08.2012 16:51 25,6 C 37 % 1017,1 hPa 0,0 l/m 3,2 km/h (1 Bft) NO 45 9,8 C 25,6 C
14.08.2012 16:56 25,9 C 38 % 1017,1 hPa 0,0 l/m 0,0 km/h (0 Bft) O-NO 67 10,5 C 25,9 C
14.08.2012 17:01 26,2 C 37 % 1017,1 hPa 0,0 l/m 8,6 km/h (2 Bft) O-SO 112 10,3 C 26,2 C
14.08.2012 17:06 26,1 C 37 % 1017,1 hPa 0,0 l/m 2,2 km/h (1 Bft) O-SO 112 10,3 C 26,1 C
14.08.2012 17:11 26,2 C 37 % 1017,1 hPa 0,0 l/m 4,0 km/h (1 Bft) O-NO 67 10,3 C 26,2 C
14.08.2012 17:16 25,9 C 38 % 1017,2 hPa 0,0 l/m 10,1 km/h (2 Bft) O-NO 67 10,5 C 25,9 C
14.08.2012 17:21 25,4 C 40 % 1017,1 hPa 0,0 l/m 3,2 km/h (1 Bft) NO 45 10,8 C 25,4 C
14.08.2012 17:26 24,8 C 41 % 1017,2 hPa 0,0 l/m 2,9 km/h (1 Bft) O-NO 67 10,6 C 24,8 C
14.08.2012 17:31 24,3 C 41 % 1017,2 hPa 0,0 l/m 2,2 km/h (1 Bft) O-NO 67 10,2 C 24,3 C
14.08.2012 17:36 23,9 C 42 % 1017,2 hPa 0,0 l/m 2,5 km/h (1 Bft) NO 45 10,2 C 23,9 C
14.08.2012 17:41 23,6 C 42 % 1017,1 hPa 0,0 l/m 4,7 km/h (1 Bft) O-NO 67 9,9 C 23,6 C
14.08.2012 17:46 23,6 C 42 % 1017,1 hPa 0,0 l/m 3,6 km/h (1 Bft) NO 45 9,9 C 23,6 C
14.08.2012 17:51 23,9 C 42 % 1017,1 hPa 0,0 l/m 0,0 km/h (0 Bft) NO 45 10,2 C 23,9 C
14.08.2012 17:56 24,4 C 42 % 1016,9 hPa 0,0 l/m 7,9 km/h (2 Bft) O-SO 112 10,6 C 24,4 C
14.08.2012 18:01 24,6 C 40 % 1017,0 hPa 0,0 l/m 1,1 km/h (1 Bft) S-SO 157 10,1 C 24,6 C
14.08.2012 18:06 24,8 C 40 % 1016,9 hPa 0,0 l/m 2,2 km/h (1 Bft) SO 135 10,3 C 24,8 C
14.08.2012 18:11 24,9 C 40 % 1016,9 hPa 0,0 l/m 7,2 km/h (2 Bft) SO 135 10,4 C 24,9 C
14.08.2012 18:16 24,8 C 39 % 1016,8 hPa 0,0 l/m 5,4 km/h (1 Bft) O-SO 112 9,9 C 24,8 C
14.08.2012 18:21 24,7 C 40 % 1016,8 hPa 0,0 l/m 13,0 km/h (3 Bft) NO 45 10,2 C 24,7 C
14.08.2012 18:26 24,4 C 41 % 1016,9 hPa 0,0 l/m 6,5 km/h (2 Bft) O-NO 67 10,3 C 24,4 C
14.08.2012 18:31 24,1 C 42 % 1016,8 hPa 0,0 l/m 5,8 km/h (2 Bft) O 90 10,4 C 24,1 C
14.08.2012 18:36 23,6 C 43 % 1016,8 hPa 0,0 l/m 4,0 km/h (1 Bft) NO 45 10,3 C 23,6 C
14.08.2012 18:41 23,2 C 44 % 1016,8 hPa 0,0 l/m 8,6 km/h (2 Bft) O-NO 67 10,3 C 23,2 C
14.08.2012 18:46 22,9 C 45 % 1016,8 hPa 0,0 l/m 2,2 km/h (1 Bft) NO 45 10,3 C 22,9 C
14.08.2012 18:51 22,7 C 46 % 1016,8 hPa 0,0 l/m 6,5 km/h (2 Bft) O-NO 67 10,5 C 22,7 C
14.08.2012 18:56 22,6 C 46 % 1016,8 hPa 0,0 l/m 2,5 km/h (1 Bft) O-SO 112 10,4 C 22,6 C
14.08.2012 19:01 22,5 C 46 % 1016,8 hPa 0,0 l/m 4,7 km/h (1 Bft) SO 135 10,3 C 22,5 C
14.08.2012 19:06 22,7 C 46 % 1016,9 hPa 0,0 l/m 2,9 km/h (1 Bft) SO 135 10,5 C 22,7 C
14.08.2012 19:11 22,9 C 46 % 1016,9 hPa 0,0 l/m 3,6 km/h (1 Bft) O-NO 67 10,7 C 22,9 C
14.08.2012 19:16 22,9 C 45 % 1017,0 hPa 0,0 l/m 6,8 km/h (2 Bft) O 90 10,3 C 22,9 C
14.08.2012 19:21 22,9 C 45 % 1016,9 hPa 0,0 l/m 7,9 km/h (2 Bft) SO 135 10,3 C 22,9 C
14.08.2012 19:26 22,8 C 46 % 1016,9 hPa 0,0 l/m 2,5 km/h (1 Bft) O-SO 112 10,6 C 22,8 C
14.08.2012 19:31 22,7 C 46 % 1017,0 hPa 0,0 l/m 0,0 km/h (0 Bft) O-SO 112 10,5 C 22,7 C
14.08.2012 19:36 22,5 C 46 % 1017,1 hPa 0,0 l/m 2,9 km/h (1 Bft) O-SO 112 10,3 C 22,5 C
14.08.2012 19:41 22,5 C 46 % 1017,1 hPa 0,0 l/m 4,3 km/h (1 Bft) O-SO 112 10,3 C 22,5 C
14.08.2012 19:46 22,3 C 47 % 1017,1 hPa 0,0 l/m 7,2 km/h (2 Bft) O-SO 112 10,4 C 22,3 C
14.08.2012 19:51 22,1 C 47 % 1017,1 hPa 0,0 l/m 0,0 km/h (0 Bft) O 90 10,3 C 22,1 C
14.08.2012 19:56 21,9 C 47 % 1017,1 hPa 0,0 l/m 0,0 km/h (0 Bft) O-NO 67 10,1 C 21,9 C
14.08.2012 20:01 21,8 C 48 % 1017,2 hPa 0,0 l/m 4,0 km/h (1 Bft) NO 45 10,3 C 21,8 C
14.08.2012 20:06 21,6 C 48 % 1017,1 hPa 0,0 l/m 1,8 km/h (1 Bft) O-NO 67 10,1 C 21,6 C
14.08.2012 20:11 21,3 C 49 % 1017,3 hPa 0,0 l/m 0,0 km/h (0 Bft) NO 45 10,1 C 21,3 C
14.08.2012 20:16 21,1 C 50 % 1017,4 hPa 0,0 l/m 0,0 km/h (0 Bft) O-NO 67 10,3 C 21,1 C
14.08.2012 20:21 20,9 C 50 % 1017,3 hPa 0,0 l/m 1,8 km/h (1 Bft) O-NO 67 10,1 C 20,9 C
14.08.2012 20:26 20,7 C 51 % 1017,4 hPa 0,0 l/m 0,0 km/h (0 Bft) O-NO 67 10,2 C 20,7 C
14.08.2012 20:31 20,5 C 51 % 1017,5 hPa 0,0 l/m 2,2 km/h (1 Bft) O-NO 67 10,0 C 20,5 C
14.08.2012 20:36 20,3 C 51 % 1017,5 hPa 0,0 l/m 2,2 km/h (1 Bft) O-NO 67 9,8 C 20,3 C
14.08.2012 20:41 20,1 C 52 % 1017,5 hPa 0,0 l/m 1,1 km/h (1 Bft) O-NO 67 9,9 C 20,1 C
14.08.2012 20:46 19,9 C 53 % 1017,5 hPa 0,0 l/m 0,0 km/h (0 Bft) O-NO 67 10,0 C 19,9 C
14.08.2012 20:51 19,8 C 53 % 1017,4 hPa 0,0 l/m 2,5 km/h (1 Bft) O-NO 67 9,9 C 19,8 C
14.08.2012 20:56 19,6 C 54 % 1017,5 hPa 0,0 l/m 1,4 km/h (1 Bft) O-NO 67 10,0 C 19,6 C
14.08.2012 21:01 19,4 C 55 % 1017,6 hPa 0,0 l/m 0,0 km/h (0 Bft) O-NO 67 10,1 C 19,4 C
14.08.2012 21:06 19,2 C 55 % 1017,5 hPa 0,0 l/m 4,3 km/h (1 Bft) O-NO 67 9,9 C 19,2 C
14.08.2012 21:11 19,0 C 56 % 1017,6 hPa 0,0 l/m 2,2 km/h (1 Bft) NO 45 10,0 C 19,0 C
14.08.2012 21:16 18,8 C 56 % 1017,8 hPa 0,0 l/m 4,0 km/h (1 Bft) O-NO 67 9,8 C 18,8 C
14.08.2012 21:21 18,6 C 57 % 1017,7 hPa 0,0 l/m 3,6 km/h (1 Bft) O-NO 67 9,9 C 18,6 C
14.08.2012 21:26 18,5 C 57 % 1017,8 hPa 0,0 l/m 2,5 km/h (1 Bft) O-NO 67 9,8 C 18,5 C
14.08.2012 21:31 18,4 C 58 % 1017,9 hPa 0,0 l/m 0,0 km/h (0 Bft) O-NO 67 10,0 C 18,4 C
14.08.2012 21:36 18,3 C 58 % 1017,9 hPa 0,0 l/m 3,2 km/h (1 Bft) NO 45 9,9 C 18,3 C
14.08.2012 21:41 18,1 C 58 % 1018,0 hPa 0,0 l/m 2,2 km/h (1 Bft) O-NO 67 9,7 C 18,1 C
14.08.2012 21:46 17,9 C 58 % 1018,0 hPa 0,0 l/m 3,6 km/h (1 Bft) O-NO 67 9,5 C 17,9 C
14.08.2012 21:51 17,9 C 59 % 1018,0 hPa 0,0 l/m 2,9 km/h (1 Bft) O-NO 67 9,8 C 17,9 C
14.08.2012 21:56 17,8 C 60 % 1018,1 hPa 0,0 l/m 4,7 km/h (1 Bft) O-NO 67 9,9 C 17,8 C
14.08.2012 22:01 17,6 C 60 % 1018,1 hPa 0,0 l/m 3,6 km/h (1 Bft) NO 45 9,7 C 17,6 C
14.08.2012 22:06 17,6 C 61 % 1018,1 hPa 0,0 l/m 10,1 km/h (2 Bft) NO 45 10,0 C 17,6 C
14.08.2012 22:11 17,5 C 61 % 1018,1 hPa 0,0 l/m 3,2 km/h (1 Bft) O-NO 67 9,9 C 17,5 C
14.08.2012 22:16 17,4 C 62 % 1018,0 hPa 0,0 l/m 6,8 km/h (2 Bft) NO 45 10,0 C 17,4 C
14.08.2012 22:21 17,3 C 62 % 1018,1 hPa 0,0 l/m 3,2 km/h (1 Bft) O-NO 67 9,9 C 17,3 C
14.08.2012 22:26 17,3 C 63 % 1018,1 hPa 0,0 l/m 3,6 km/h (1 Bft) O 90 10,2 C 17,3 C
14.08.2012 22:31 17,1 C 63 % 1018,1 hPa 0,0 l/m 8,6 km/h (2 Bft) O 90 10,0 C 17,1 C
14.08.2012 22:36 16,9 C 63 % 1018,2 hPa 0,0 l/m 3,2 km/h (1 Bft) SO 135 9,8 C 16,9 C
14.08.2012 22:41 16,9 C 64 % 1018,2 hPa 0,0 l/m 2,2 km/h (1 Bft) O-SO 112 10,0 C 16,9 C
14.08.2012 22:46 16,6 C 65 % 1018,2 hPa 0,0 l/m 6,8 km/h (2 Bft) O-SO 112 10,0 C 16,6 C
14.08.2012 22:51 16,5 C 65 % 1018,3 hPa 0,0 l/m 4,0 km/h (1 Bft) O-SO 112 9,9 C 16,5 C
14.08.2012 22:56 16,4 C 66 % 1018,4 hPa 0,0 l/m 0,0 km/h (0 Bft) O-SO 112 10,0 C 16,4 C
14.08.2012 23:01 16,3 C 67 % 1018,3 hPa 0,0 l/m 7,2 km/h (2 Bft) O-NO 67 10,2 C 16,3 C
14.08.2012 23:06 16,1 C 67 % 1018,4 hPa 0,0 l/m 7,2 km/h (2 Bft) O-SO 112 10,0 C 16,1 C
14.08.2012 23:11 16,0 C 68 % 1018,5 hPa 0,0 l/m 2,2 km/h (1 Bft) O-SO 112 10,1 C 16,0 C
14.08.2012 23:16 15,9 C 68 % 1018,5 hPa 0,0 l/m 5,8 km/h (2 Bft) O-SO 112 10,0 C 15,9 C
14.08.2012 23:21 15,9 C 69 % 1018,5 hPa 0,0 l/m 2,5 km/h (1 Bft) O 90 10,2 C 15,9 C
14.08.2012 23:26 15,8 C 69 % 1018,5 hPa 0,0 l/m 6,1 km/h (2 Bft) O-NO 67 10,1 C 15,8 C
14.08.2012 23:31 15,7 C 70 % 1018,6 hPa 0,0 l/m 0,0 km/h (0 Bft) O-NO 67 10,2 C 15,7 C
14.08.2012 23:36 15,6 C 70 % 1018,6 hPa 0,0 l/m 3,6 km/h (1 Bft) NO 45 10,1 C 15,6 C
14.08.2012 23:41 15,5 C 71 % 1018,6 hPa 0,0 l/m 2,2 km/h (1 Bft) O-NO 67 10,3 C 15,5 C
14.08.2012 23:46 15,4 C 71 % 1018,6 hPa 0,0 l/m 1,4 km/h (1 Bft) O-NO 67 10,2 C 15,4 C
14.08.2012 23:51 15,4 C 72 % 1018,6 hPa 0,0 l/m 0,0 km/h (0 Bft) O-SO 112 10,4 C 15,4 C
14.08.2012 23:56 15,4 C 72 % 1018,6 hPa 0,0 l/m 6,8 km/h (2 Bft) O-SO 112 10,4 C 15,4 C
_ Min-Zeit 06:36 16:01 16:01 - 00:01 - - 21:46 06:36
Minimum _ 11,4 C 37 % 1016,8 hPa - 0,0 km/h (0 Bft) - - 9,5 C 11,4 C
_ Max-Zeit 17:01 06:11 00:01 00:01 13:56 - - 10:51 17:01
Maximum _ 26,2 C 90 % 1019,2 hPa 0,0 l/m 13,3 km/h
NO (3 Bft)
- - 13,6 C 26,2 C
Durchschnitt _ 18,5 C 64 % 1018,1 hPa #0,0 l/m 4,3 km/h (1 Bft) O-NO - 10,8 C 18,5 C
(c) by David Heller